Regional Weather Roundup
Issued by NWS Cleveland, OH

Home | Current Version | Previous Version | Graphics & Text | Print | Product List | Glossary On
Versions: 1 2 3 4 5 6 7 8 9 10 11 12 13 14 15 16 17 18 19 20 21 22 23 24 25 26 27 28 29 30 31 32 33 34 35 36 37 38 39 40 41 42 43 44 45 46 47 48 49 50
000
ASUS41 KCLE 210100
RWRCLE
OHIO REGIONAL WEATHER ROUNDUP
NATIONAL WEATHER SERVICE WILMINGTON, OH
900 PM EDT SAT SEP 20 2014

NOTE: "FAIR" INDICATES FEW OR NO CLOUDS BELOW 12,000 FEET WITH NO
SIGNIFICANT WEATHER AND/OR OBSTRUCTIONS TO VISIBILITY.

OHZ001>008-015>018-024>027-034-035-043-044-210200-
   NORTHWEST OHIO

CITY           SKY/WX    TMP DP  RH WIND       PRES   REMARKS
DEFIANCE       LGT RAIN N/A N/A N/A S13       29.88R
FINDLAY        RAIN      68  60  75 W24G31    29.93R
TOLEDO EXPRESS RAIN      64  62  93 S8        29.85F FOG
TOLEDO METCALF LGT RAIN  66  62  87 SW9       29.87F
LIMA           CLOUDY    74  61  63 NW17G25   29.94R
$$

OHZ009>014-019>023-028>033-038-089-210200-
   NORTHEAST OHIO

CITY           SKY/WX    TMP DP  RH WIND       PRES   REMARKS
CLE-HOPKINS    MOCLDY    72  60  66 S9        29.91R
CLE-LAKEFRONT  PTCLDY    75  63  66 S13       29.88R
CUY CO. ARPT   PTCLDY    75  66  73 S12       29.90R
LORAIN-ELYRIA  MOCLDY    73  60  63 SW7       29.91R
ASHTABULA      PTCLDY    69  61  75 S9        29.91R
AKRON-CANTON   PTCLDY    72  61  68 S13       29.95R
WOOSTER        NOT AVBL
MANSFIELD      PTCLDY    71  60  68 SW12      29.95R
YOUNGSTOWN     PTCLDY    70  62  76 S7        29.94R
$$

OHZ042-051>053-060>062-070>072-077>081-210200-
  SOUTHWEST OHIO

CITY           SKY/WX    TMP DP  RH WIND       PRES   REMARKS
CINC-COVINGTON MOCLDY    73  65  75 SW5       29.98R
CINC-LUNKEN    CLEAR     69  64  84 SW3       29.98R
HAMILTON       PTCLDY    67  65  93 CALM      29.97R
DAYTON         NOT AVBL
WRIGHT-PAT AFB PTCLDY    71  64  78 S6        29.97R
DAYTON GENERAL MOCLDY    74  64  71 SW6       29.97R
WILMINGTON     CLEAR     68  61  78 SW6       29.99R
$$

OHZ036-037-039>041-045>050-054>059-063>069-073>076-082>088-210200-
  CENTRAL AND SOUTHEAST OHIO

CITY           SKY/WX    TMP DP  RH WIND       PRES   REMARKS
COLUMBUS       PTCLDY    77  60  55 SW7       29.96R
OSU AIRPORT    PTCLDY    73  61  65 SW7       29.96R
BOLTON FIELD   NOT AVBL
RICKENBACK AFB NOT AVBL
NEWARK         MOCLDY    71  61  70 SW6       29.96R
MARION         MOCLDY    73  62  68 SW10      29.95R
LANCASTER      MOCLDY    72  61  68 S3        29.98R
ZANESVILLE     CLEAR     70  61  73 S6        29.97R
NEW PHILLY     PTCLDY    70  62  76 CALM      29.96R
$$


USA.gov is the U.S. government's official web portal to all federal, state and local government web resources and services.